Location: Crescent
(42.8242°N, 73.7329°W)
Time: 07:18:37
(UTC+00:00)

Explorer 7 - Pass Details

Date: 24 February 2026
Orbit: 430 x 541 km, 50.2° (Epoch: 9 March)

Event Time Altitude Azimuth Distance (km) Brightness Sun altitude
Rises 18:35:10 0° 263° (W) 2,400 10.5 34.3°
Reaches altitude 10° 18:37:22 10° 272° (W) 1,543 9.5 34.1°
Maximum altitude 18:40:37 37° 341° (NNW) 708 7.4 33.8°
Drops below altitude 10° 18:43:57 10° 51° (NE) 1,588 8.8 33.5°
Sets 18:46:15 0° 60° (ENE) 2,483 9.7 33.3°
